User: anonymous   Login
Location: *
(32.8667°N, 13.1833°E)
Time: 22:19:06
(UTC+00:00)
Language:

Cosmos 2058 - Orbit

View from above orbital plane
View from above orbital plane
View from above satellite
View from above satellite

Ground track
Ground track

The orbit data is extracted from the following two-line orbital elements,

1 20465U 90010A   19258.16757354  .00000158  00000-0  11099-4 0  9998
2 20465  82.4921 179.1882 0016872  55.2654 305.0155 14.97905559608076
Epoch (UTC): 15 September 2019 04:01:18
Eccentricity: 0.0016872
inclination: 82.4921°
perigee height: 561 km
apogee height: 585 km
right ascension of ascending node: 179.1882°
argument of perigee: 55.2654°
revolutions per day: 14.97905559
mean anomaly at epoch: 305.0155°
orbit number at epoch: 60807

The dashed part of the orbit path shows where the satellite is in the earth's shadow,  

DLR